Weather in Zloczew

Poland     51°24′52″N   18°36′36″E
temp.,
°C
wind,
m/s
gust,
m/s
humid.,
%
clouds,
%
prec.,
mm/h
press.,
hPa
HPBL,
m
22 april, thu
thu2223:00+11wsw496538 0.0 1011238
02:00+6nw489591 0.1 1013264
05:00+6nnw4692100 0.9 1013724
08:00+4wnw5107998 3.6 1015827
11:00+7wnw795880 0.0 10171524
14:00+9wnw894967 0.1 10172026
17:00+8wnw8105095 0.3 10171797
20:00+5w698593 0.6 1018433
23 april, fri
fri2323:00+4wsw36908 0.2 1019150
02:00+2w498715 0.2 1019212
05:000w410910 0.0 1020241
08:00+4w698798 0.1 1021433
11:00+4wnw797563 0.1 1022896
14:00+7w8106936 0.3 10231213
17:00+5wnw71070100 0.1 10231167
20:00+5wnw5876100 0.1 1023425
24 april, sat
sat2423:00+3wnw358490 0.1 102492
02:000wnw34730 0.1 102443
05:000w36687 0.0 102596
08:00+4wnw35545 0.0 1025269
11:00+9w564399 0.0 10231985
14:00+9wnw6756100 0.1 10221570
17:00+8wnw676383 0.3 10221011
20:00+5w347537 0.4 102259
25 april, sun
sun2523:00+3nw348642 0.1 102271
02:00+3e228694 0.1 102271
05:00+1se119247 0.0 102211
08:00+4wnw56761 0.3 1022419
11:00+7nw794076 0.0 10222451
14:00+9nw71035100 0.0 10222861
17:00+8nw8114799 0.1 10212252
20:00+4nnw486993 0.3 1022221
26 april, mon
mon2623:00+3nw3471100 0.0 102265
02:00+2w34666 0.0 102164
05:00+1wsw34725 0.0 102061
08:00+5w48657 0.0 1020783
11:00+8wnw574717 0.0 10191878
14:00+10nw56395 0.0 10181955
17:00+10nw454066 0.0 10171927
20:00+6wnw22558 0.0 101710